Location: *
(33.8649°S, 62.1526°E)
Time: 16:39:47
(UTC+00:00)

Cosmos 1766 Rocket - Pass Details

Date: 17 January 2021
Orbit: 606 x 632 km, 82.5° (Epoch: 03 March)

Event Time Altitude Azimuth Distance (km) Brightness Sun altitude
Rises 16:51:07 0° 178° (S) 2,938 7.6 -19.1°
Reaches altitude 10° 16:53:31 10° 169° (S) 2,018 6.6 -19.5°
Maximum altitude 16:57:41 38° 101° (E) 963 4.2 -20.1°
Enters shadow 16:57:52 38° 94° (E) 966 4.2 -20.1°
